Regional Weather Roundup
Issued by NWS

Home | Current Version | Previous Version | Graphics & Text | Print | Product List | Glossary On
Versions: 1 2 3 4 5 6 7 8 9 10 11 12 13 14 15 16 17 18 19 20 21 22 23 24 25 26 27 28 29 30 31 32 33 34 35 36 37 38 39 40 41 42 43 44 45 46 47 48 49 50
000
ASUS43 KOAX 241210
RWRNE

WEATHER ROUNDUP FOR NEBRASKA
NATIONAL WEATHER SERVICE OMAHA NE
700 AM CDT TUE MAY 24 2016

NOTES: SATELLITE DATA IS BEING USED TO AUGMENT CLOUD COVER ABOVE
       12000 FEET.
       "FAIR" INDICATES FEW OR NO CLOUDS BELOW 12,000 FEET WITH NO
       SIGNIFICANT WEATHER AND/OR OBSTRUCTIONS TO VISIBILITY.

  * THESE STATIONS DO NOT REPORT WEATHER SUCH AS RAIN...SNOW OR FOG.

NEZ001>004-019>022-054>056-241300-
NEBRASKA PANHANDLE

CITY           SKY/WX    TMP DP  RH WIND       PRES   REMARKS
SCOTTSBLUFF    CLEAR     39  36  89 N6        29.91R WCI  35
6HR MIN TEMP:  37; 6HR MAX TEMP:  44;

ALLIANCE       CLEAR     35  34  96 S8        29.90R WCI  29
6HR MIN TEMP:  34; 6HR MAX TEMP:  40;

CHADRON        CLEAR     42  38  85 S6        29.89R
6HR MIN TEMP:  36; 6HR MAX TEMP:  51;

KIMBALL        CLOUDY    41  39  93 W6        29.94R
SIDNEY         CLOUDY    44  40  85 W5        29.93R
6HR MIN TEMP:  38; 6HR MAX TEMP:  44;

$$

NEZ057>060-069>072-079>082-241300-
SOUTHWEST NEBRASKA

CITY           SKY/WX    TMP DP  RH WIND       PRES   REMARKS
NORTH PLATTE   CLOUDY    54  47  77 VRB5      29.85F
6HR MIN TEMP:  45; 6HR MAX TEMP:  55; 6HR PCP: TRACE;

IMPERIAL       CLOUDY    55  48  77 W5        29.88R
6HR MIN TEMP:  52; 6HR MAX TEMP:  57; 6HR PCP:  0.15;

LEXINGTON      CLOUDY    56  51  82 W3        29.90S
MCCOOK         CLOUDY    55  48  77 E5        29.86F
6HR MIN TEMP:  53; 6HR MAX TEMP:  58; 6HR PCP: TRACE;

OGALLALA       CLOUDY    45  42  86 SW3       29.91R
$$

NEZ005>010-023>029-035>040-094-241300-
NORTH CENTRAL NEBRASKA

CITY           SKY/WX    TMP DP  RH WIND       PRES   REMARKS
VALENTINE      CLEAR     47  42  83 SW7       29.88R
6HR MIN TEMP:  43; 6HR MAX TEMP:  58;

AINSWORTH      CLEAR     47  43  84 SW6       29.89R
BROKEN BOW     CLOUDY    51  48  89 N3        29.90R
6HR MIN TEMP:  47; 6HR MAX TEMP:  55;

O`NEILL        CLOUDY    52  48  85 S8        29.89R
ORD            CLOUDY    54  52  93 CALM      29.89R
6HR MIN TEMP:  50; 6HR MAX TEMP:  60;

THEDFORD       CLOUDY    49  46  90 SW3       29.91S
$$

NEZ041-046>049-061>064-073>077-083>087-241300-
SOUTH CENTRAL NEBRASKA

CITY           SKY/WX    TMP DP  RH WIND       PRES   REMARKS
GRAND ISLAND   LGT RAIN  60  59  96 N8        29.89R
6HR MIN TEMP:  58; 6HR MAX TEMP:  62; 6HR PCP: TRACE;

AURORA         LGT RAIN  59  59 100 CALM      29.91R
HASTINGS       LGT RAIN  62  60  93 W7        29.92R
6HR MIN TEMP:  61; 6HR MAX TEMP:  63; 6HR PCP:  0.01;

HEBRON         TSTM      62  57  86 SW7       29.93R
HOLDREGE       CLOUDY    62  59  91 CALM      29.88F
KEARNEY *      CLOUDY    63  59  88 S6        29.91S
YORK           CLOUDY    59  57  94 CALM      29.90R FOG
$$

NEZ011>018-030>034-042>045-241300-
NORTHEAST NEBRASKA

CITY           SKY/WX    TMP DP  RH WIND       PRES   REMARKS
NORFOLK        CLOUDY    58  55  90 S5        29.88R
6HR MIN TEMP:  54; 6HR MAX TEMP:  61;

ALBION         CLOUDY    59  56  89 CALM      29.89R
BLAIR          CLOUDY    60  59  96 S7        29.90R
FREMONT        CLOUDY    60  59  99 S5        29.90R
TEKAMAH        CLOUDY    58  57  97 S6        29.89R
6HR MIN TEMP:  57; 6HR MAX TEMP:  66; 6HR PCP: TRACE;

WAYNE          CLOUDY    57  56  97 S8        29.89R
$$

NEZ050>053-065>068-078-088>093-241300-
SOUTHEAST NEBRASKA

CITY           SKY/WX    TMP DP  RH WIND       PRES   REMARKS
LINCOLN        CLOUDY    60  59  96 N5        29.89R
6HR MIN TEMP:  59; 6HR MAX TEMP:  61;

OMAHA EPPLEY   CLOUDY    63  60  90 SW3       29.90R
6HR MIN TEMP:  60; 6HR MAX TEMP:  67; 6HR PCP:  0.05;

BEATRICE       CLOUDY    62  58  88 W5        29.92R
FALLS CITY     TSTM      66  57  72 VRB6      29.86F
6HR MIN TEMP:  65; 6HR MAX TEMP:  68; 6HR PCP:  0.03;

NEBRASKA CITY  CLOUDY    63  63 100 CALM      29.91R
PLATTSMOUTH    CLOUDY    64  64  97 S5        29.91R
$$

NEZ044-045-051>053-067-241300-
OMAHA AREA

CITY           SKY/WX    TMP DP  RH WIND       PRES   REMARKS
OMAHA EPPLEY   CLOUDY    63  60  90 SW3       29.90R
6HR MIN TEMP:  60; 6HR MAX TEMP:  67; 6HR PCP:  0.05;

BLAIR          CLOUDY    60  59  96 S7        29.90R
FREMONT        CLOUDY    60  59  99 S5        29.90R
MILLARD        CLOUDY    61  60  95 CALM      29.90R
OFFUTT AFB     MOCLDY    63  63 100 SE3       29.89R
PLATTSMOUTH    CLOUDY    64  64  97 S5        29.91R
WAHOO          FAIR      59  58  96 S3        29.90R
$$



USA.gov is the U.S. government's official web portal to all federal, state and local government web resources and services.